• In Latvia
  • List of Countries
  • For 7 days
  • Water Temperature
  • Satellite Maps
  • Weather Map
  • Weather Widgets
  • user-avatar
    Login

    Hourly Weather Dustobod

    Today, 23 July, Monday

    Time Temperature Precipitation Wind Pressure Humidity
    00:00 +35°C° 0 mm 2 mps 728 mmHg 19%
    01:00 +35°C° 0 mm 2 mps 728 mmHg 19%
    02:00 +34°C° 0 mm 2 mps 728 mmHg 20%
    03:00 +34°C° 0 mm 2 mps 728 mmHg 21%
    04:00 +32°C° 0 mm 2 mps 728 mmHg 22%
    05:00 +32°C° 0 mm 2 mps 728 mmHg 23%
    06:00 +35°C° 0 mm 2 mps 728 mmHg 23%
    07:00 +36°C° 0 mm 3 mps 728 mmHg 22%
    08:00 +38°C° 0 mm 3 mps 729 mmHg 22%
    09:00 +40°C° 0 mm 3 mps 729 mmHg 20%
    10:00 +43°C° 0 mm 4 mps 729 mmHg 18%
    11:00 +45°C° 0 mm 4 mps 729 mmHg 16%
    12:00 +46°C° 0 mm 5 mps 729 mmHg 15%
    13:00 +47°C° 0 mm 5 mps 728 mmHg 14%
    14:00 +48°C° 0 mm 5 mps 728 mmHg 13%
    15:00 +47°C° 0 mm 5 mps 728 mmHg 14%
    16:00 +47°C° 0 mm 6 mps 728 mmHg 14%
    17:00 +46°C° 0 mm 6 mps 728 mmHg 14%
    18:00 +44°C° 0 mm 6 mps 728 mmHg 17%
    19:00 +41°C° 0 mm 5 mps 728 mmHg 19%
    20:00 +37°C° 0 mm 5 mps 728 mmHg 22%
    21:00 +36°C° 0 mm 4 mps 729 mmHg 24%
    22:00 +34°C° 0 mm 3 mps 729 mmHg 26%
    23:00 +33°C° 0 mm 3 mps 729 mmHg 28%

    Tomorrow, 24 July, Tuesday

    Time Temperature Precipitation Wind Pressure Humidity
    00:00 +31°C° 0 mm 3 mps 729 mmHg 30%
    01:00 +30°C° 0 mm 3 mps 729 mmHg 32%
    02:00 +29°C° 0 mm 3 mps 729 mmHg 33%
    03:00 +29°C° 0 mm 3 mps 729 mmHg 33%
    04:00 +28°C° 0 mm 3 mps 729 mmHg 33%
    05:00 +27°C° 0 mm 3 mps 729 mmHg 33%
    06:00 +28°C° 0 mm 3 mps 729 mmHg 30%
    07:00 +29°C° 0 mm 4 mps 730 mmHg 27%
    08:00 +30°C° 0 mm 4 mps 730 mmHg 24%
    09:00 +33°C° 0 mm 4 mps 730 mmHg 22%
    10:00 +35°C° 0 mm 4 mps 730 mmHg 20%
    11:00 +37°C° 0 mm 4 mps 730 mmHg 18%
    12:00 +39°C° 0 mm 5 mps 730 mmHg 17%
    13:00 +40°C° 0 mm 5 mps 730 mmHg 16%
    14:00 +41°C° 0 mm 5 mps 730 mmHg 14%
    15:00 +41°C° 0 mm 6 mps 730 mmHg 14%
    16:00 +40°C° 0 mm 6 mps 730 mmHg 13%
    17:00 +40°C° 0 mm 7 mps 730 mmHg 12%
    18:00 +38°C° 0 mm 6 mps 730 mmHg 14%
    19:00 +34°C° 0 mm 5 mps 731 mmHg 15%
    20:00 +32°C° 0 mm 4 mps 731 mmHg 17%
    21:00 +29°C° 0 mm 4 mps 731 mmHg 18%
    22:00 +28°C° 0 mm 4 mps 731 mmHg 20%
    23:00 +27°C° 0 mm 4 mps 731 mmHg 21%

    Day after tomorrow, 25 July, Wednesday

    Time Temperature Precipitation Wind Pressure Humidity
    00:00 +26°C° 0 mm 3 mps 731 mmHg 23%
    01:00 +25°C° 0 mm 3 mps 731 mmHg 25%
    02:00 +24°C° 0 mm 3 mps 731 mmHg 27%
    03:00 +24°C° 0 mm 3 mps 731 mmHg 29%
    04:00 +22°C° 0 mm 3 mps 731 mmHg 32%
    05:00 +21°C° 0 mm 3 mps 731 mmHg 35%
    06:00 +24°C° 0 mm 3 mps 731 mmHg 35%
    07:00 +25°C° 0 mm 4 mps 731 mmHg 35%
    08:00 +27°C° 0 mm 4 mps 732 mmHg 34%
    09:00 +28°C° 0 mm 4 mps 732 mmHg 31%
    10:00 +30°C° 0 mm 4 mps 732 mmHg 28%
    11:00 +33°C° 0 mm 4 mps 732 mmHg 25%
    12:00 +34°C° 0 mm 5 mps 731 mmHg 23%
    13:00 +35°C° 0 mm 5 mps 731 mmHg 21%
    14:00 +37°C° 0 mm 5 mps 731 mmHg 19%
    15:00 +36°C° 0 mm 5 mps 731 mmHg 20%
    16:00 +36°C° 0 mm 5 mps 731 mmHg 20%
    17:00 +36°C° 0 mm 6 mps 731 mmHg 21%
    18:00 +34°C° 0 mm 5 mps 731 mmHg 24%
    19:00 +32°C° 0 mm 4 mps 731 mmHg 28%
    20:00 +29°C° 0 mm 4 mps 731 mmHg 31%
    21:00 +28°C° 0 mm 4 mps 731 mmHg 33%
    22:00 +27°C° 0 mm 3 mps 731 mmHg 35%
    23:00 +26°C° 0 mm 3 mps 731 mmHg 37%

    26 July, Thursday

    Time Temperature Precipitation Wind Pressure Humidity
    00:00 +26°C° 0 mm 3 mps 731 mmHg 38%
    01:00 +25°C° 0 mm 3 mps 731 mmHg 40%
    02:00 +24°C° 0 mm 3 mps 731 mmHg 42%
    03:00 +22°C° 0 mm 3 mps 731 mmHg 43%
    04:00 +22°C° 0 mm 3 mps 731 mmHg 45%
    05:00 +21°C° 0 mm 3 mps 731 mmHg 46%
    06:00 +24°C° 0 mm 3 mps 731 mmHg 43%
    07:00 +25°C° 0 mm 4 mps 731 mmHg 39%
    08:00 +26°C° 0 mm 4 mps 732 mmHg 36%
    09:00 +28°C° 0 mm 4 mps 732 mmHg 33%
    10:00 +30°C° 0 mm 4 mps 732 mmHg 29%
    11:00 +33°C° 0 mm 4 mps 732 mmHg 26%
    12:00 +34°C° 0 mm 4 mps 731 mmHg 23%
    13:00 +35°C° 0 mm 4 mps 731 mmHg 21%
    14:00 +36°C° 0 mm 3 mps 731 mmHg 19%
    15:00 +37°C° 0 mm 3 mps 731 mmHg 18%
    16:00 +37°C° 0 mm 3 mps 731 mmHg 17%
    17:00 +38°C° 0 mm 3 mps 731 mmHg 16%
    18:00 +36°C° 0 mm 3 mps 731 mmHg 19%
    19:00 +32°C° 0 mm 2 mps 731 mmHg 21%
    20:00 +30°C° 0 mm 2 mps 731 mmHg 24%
    21:00 +29°C° 0 mm 3 mps 731 mmHg 25%
    22:00 +28°C° 0 mm 3 mps 731 mmHg 26%
    23:00 +28°C° 0 mm 3 mps 731 mmHg 28%

    27 July, Friday

    Time Temperature Precipitation Wind Pressure Humidity
    00:00 +27°C° 0 mm 3 mps 731 mmHg 30%
    01:00 +26°C° 0 mm 3 mps 731 mmHg 32%
    02:00 +25°C° 0 mm 3 mps 730 mmHg 34%
    03:00 +24°C° 0 mm 3 mps 730 mmHg 35%
    04:00 +24°C° 0 mm 3 mps 730 mmHg 36%
    05:00 +22°C° 0 mm 3 mps 730 mmHg 37%
    06:00 +25°C° 0 mm 3 mps 731 mmHg 34%
    07:00 +26°C° 0 mm 3 mps 731 mmHg 32%
    08:00 +27°C° 0 mm 3 mps 731 mmHg 30%
    09:00 +29°C° 0 mm 3 mps 731 mmHg 27%
    10:00 +31°C° 0 mm 3 mps 731 mmHg 24%
    11:00 +34°C° 0 mm 3 mps 731 mmHg 21%
    12:00 +35°C° 0 mm 3 mps 731 mmHg 19%
    13:00 +37°C° 0 mm 3 mps 730 mmHg 18%
    14:00 +38°C° 0 mm 3 mps 730 mmHg 16%
    15:00 +38°C° 0 mm 3 mps 730 mmHg 15%
    16:00 +38°C° 0 mm 3 mps 730 mmHg 14%
    17:00 +39°C° 0 mm 3 mps 730 mmHg 13%
    18:00 +36°C° 0 mm 2 mps 730 mmHg 15%
    19:00 +34°C° 0 mm 2 mps 730 mmHg 18%
    20:00 +30°C° 0 mm 1 mps 730 mmHg 20%
    21:00 +29°C° 0 mm 2 mps 730 mmHg 21%
    22:00 +29°C° 0 mm 2 mps 730 mmHg 22%
    23:00 +28°C° 0 mm 2 mps 730 mmHg 24%

    28 July, Saturday

    Time Temperature Precipitation Wind Pressure Humidity
    00:00 +27°C° 0 mm 2 mps 730 mmHg 25%
    01:00 +26°C° 0 mm 2 mps 730 mmHg 26%
    02:00 +26°C° 0 mm 2 mps 730 mmHg 28%
    03:00 +25°C° 0 mm 3 mps 730 mmHg 30%
    04:00 +25°C° 0 mm 3 mps 730 mmHg 32%
    05:00 +24°C° 0 mm 3 mps 730 mmHg 33%
    06:00 +26°C° 0 mm 3 mps 730 mmHg 32%
    07:00 +27°C° 0 mm 4 mps 730 mmHg 30%
    08:00 +29°C° 0 mm 4 mps 731 mmHg 28%
    09:00 +32°C° 0 mm 4 mps 731 mmHg 25%
    10:00 +33°C° 0 mm 4 mps 731 mmHg 22%
    11:00 +35°C° 0 mm 4 mps 731 mmHg 19%
    12:00 +37°C° 0 mm 4 mps 731 mmHg 18%
    13:00 +38°C° 0 mm 4 mps 730 mmHg 16%
    14:00 +40°C° 0 mm 4 mps 730 mmHg 14%
    15:00 +39°C° 0 mm 3 mps 730 mmHg 13%
    16:00 +39°C° 0 mm 3 mps 730 mmHg 12%
    17:00 +39°C° 0 mm 3 mps 730 mmHg 11%
    18:00 +37°C° 0 mm 3 mps 730 mmHg 13%
    19:00 +34°C° 0 mm 2 mps 730 mmHg 15%
    20:00 +31°C° 0 mm 2 mps 730 mmHg 17%
    21:00 +30°C° 0 mm 2 mps 730 mmHg 18%
    22:00 +29°C° 0 mm 2 mps 730 mmHg 20%
    23:00 +28°C° 0 mm 3 mps 730 mmHg 21%
    Show more